Regional Weather Roundup
Issued by NWS

Home | Current Version | Previous Version | Graphics & Text | Print | Product List | Glossary On
Versions: 1 2 3 4 5 6 7 8 9 10 11 12 13 14 15 16 17 18 19 20 21 22 23 24 25 26 27 28 29 30 31 32 33 34 35 36 37 38 39 40 41 42 43 44 45 46 47 48 49 50
000
ASUS45 KBOU 020207
RWRCO

WEATHER ROUNDUP FOR COLORADO
NATIONAL WEATHER SERVICE DENVER/BOULDER CO
800 PM MDT FRI AUG 01 2014

NOTE: "FAIR" INDICATES FEW OR NO CLOUDS BELOW 12000 FEET WITH NO
SIGNIFICANT WEATHER AND/OR OBSTRUCTIONS TO VISIBILITY.

COZ001>005-013-030-031-020300-
...NORTHWEST COLORADO...

CITY           SKY/WX    TMP DP  RH WIND       PRES   REMARKS
CRAIG          PTCLDY    65  45  48 W5        30.20S
HAYDEN         PTCLDY    73  45  35 E6        30.24S
MEEKER         PTCLDY    73  46  38 E3        30.24S
MOUNT WERNER   NOT AVBL
STEAMBOAT SPGS PTCLDY    69  43  38 E12       30.28R
WALDEN         CLEAR     61  41  48 SE8       30.39R
$$

COZ006>008-011-020300-
...WEST CENTRAL VALLEYS...

CITY           SKY/WX    TMP DP  RH WIND       PRES   REMARKS
GRAND JUNCTION CLEAR     77  45  32 E10       30.13S
MONTROSE       PTCLDY    72  49  44 SW8       30.22S
EAGLE          MOCLDY    70  50  49 E3        30.32R
RIFLE          PTCLDY    74  47  38 NE5       30.19S
DELTA          PTCLDY    75  46  35 NE6       30.18S
NUCLA          PTCLDY    70  52  52 E9        30.25S
$$

COZ017>023-064>068-020300-
...SOUTHWEST COLORADO...

CITY           SKY/WX    TMP DP  RH WIND       PRES   REMARKS
DURANGO        MOCLDY    63  56  78 NE6       30.25R
CORTEZ         CLEAR     78  46  32 E7        30.16S
PAGOSA SPRINGS MOCLDY    63  50  63 NE3       30.36S
TELLURIDE      MOCLDY    61  45  55 CALM      30.43R
WOLF CREEK PAS NOT AVBL
$$

COZ009-010-012-014-032>034-037-058>063-020300-
...CENTRAL COLORADO...

CITY           SKY/WX    TMP DP  RH WIND       PRES   REMARKS
ASPEN          CLOUDY    62  50  64 VRB3      30.37R
BUENA VISTA    CLOUDY    57  47  70 CALM      30.45S
COPPER MTN     CLOUDY    46  34  61 S8        30.67R
BERTHOUD PASS  CLOUDY    37  37 100 E21       30.71S
COTTONWOOD PAS CLOUDY    54  43  66 SE5       30.56S
GUNNISON       CLOUDY    63  45  51 E17       30.38R
KREMMLING      MOCLDY    61  45  55 S3        30.38R
LEADVILLE      CLOUDY    48  43  82 SW6       30.54R
MONARCH PASS   FOG       41  37  87 NE20      30.74S VSB<1/4
SALIDA         MOCLDY    59  51  74 CALM      30.50S
SUNLIGHT       MOCLDY    52  43  71 CALM      30.57S
WILKERSON PASS CLOUDY    43  41  93 NE5       30.67S FOG
$$

COZ069>075-020300-
...SAN LUIS VALLEY/SANGRE DE CRISTO MOUNTAINS...

CITY           SKY/WX    TMP DP  RH WIND       PRES   REMARKS
ALAMOSA        CLOUDY    55  50  83 NE14G24   30.39R
LA VETA PASS   LGT RAIN  45  45 100 E8        30.56R VSB 1/4
SAGUACHE       CLOUDY    57  54  88 SE3       30.41R
$$

COZ035-036-038>040-020300-
...NORTHERN COLORADO FRONT RANGE...

CITY           SKY/WX    TMP DP  RH WIND       PRES   REMARKS
DENVER INTL AP MOCLDY    73  49  42 S10       30.25R
DMNS CITY PARK   N/A     71  49  45 S6        30.25S
AURORA         MOCLDY    69  49  48 S12       30.28R
FRONT RANGE AP NOT AVBL
ERIE MUNI ARPT MOCLDY    74  46  36 S7        30.23S
BOULDER MUN AP MOCLDY    73  45  35 CALM      30.24S
CENTENNIAL     MOCLDY    68  47  46 S7        30.29R
BROOMFIELD     MOCLDY    73  46  38 S7        30.27R
FORT COLLINS   PTCLDY    75  46  35 S5        30.22R
LONGMONT       PTCLDY    77  44  30 CALM      30.24S
$$

COZ041-046-047-076>085-087-088-020300-
...PIKES PEAK/PALMER DIVIDE AND SOUTHERN FOOTHILLS...

CITY           SKY/WX    TMP DP  RH WIND       PRES   REMARKS
COLO. SPRINGS  CLOUDY    66  54  65 SW6       30.34S
A. F. ACADEMY  CLOUDY    65  51  62 S5        30.35S
ELLICOTT       CLOUDY    65  56  72 W3        30.32S
FALCON         CLOUDY    63  53  69 SW6       30.37F
FORT CARSON    CLOUDY    66  54  63 W7        30.31S
LIMON          PTCLDY    69  45  41 S7        30.27S
MONUMENT HILL  MOCLDY    59  50  72 SW3       30.37S
TRINIDAD       LGT RAIN  60  59  96 SW5       30.32S
$$

COZ042>045-048>051-090-091-020300-
...NORTHEAST COLORADO...

CITY           SKY/WX    TMP DP  RH WIND       PRES   REMARKS
GREELEY ARPT   PTCLDY    79  52  38 CALM      30.21S
AKRON          PTCLDY    72  50  45 SE7       30.21S
BURLINGTON     MOCLDY    75  50  41 SE9       30.20R
WRAY             N/A     78  49  37 SE5       30.16R
STERLING       PTCLDY    81  55  41 CALM      30.15S
HOLYOKE        PTCLDY    73  57  56 SE8       30.15S
FORT MORGAN    PTCLDY    75  52  45 E6        30.20R
$$

COZ086-089-092>099-020300-
...SOUTHEAST COLORADO...

CITY           SKY/WX    TMP DP  RH WIND       PRES   REMARKS
PUEBLO         CLOUDY    67  58  72 W9        30.24S
LA JUNTA       CLOUDY    68  59  73 W12       30.22R
LAMAR          CLOUDY    74  60  61 SE8       30.15R
SPRINGFIELD      N/A     71  54  54 S6        30.22R
$$


USA.gov is the U.S. government's official web portal to all federal, state and local government web resources and services.